Time,TemperatureF,DewpointF,PressureIn,WindDirection,WindDirectionDegrees,WindSpeedMPH,WindSpeedGustMPH,Humidity,HourlyPrecipIn,Conditions,Clouds,dailyrainin,SoftwareType,DateUTC
2013-01-15 00:10:00,32.8,26.0,30.24,NNW,332,1.0,2.0,76,0.00,,,0.00,weatherlink.com 1.10,2013-01-15 05:10:00,
2013-01-15 00:25:00,32.8,26.0,30.26,WNW,299,0.0,2.0,76,0.00,,,0.00,weatherlink.com 1.10,2013-01-15 05:25:00,
2013-01-15 00:40:00,32.7,26.0,30.27,NW,323,0.0,1.0,75,0.00,,,0.00,weatherlink.com 1.10,2013-01-15 05:40:00,
2013-01-15 00:55:00,32.5,26.0,30.25,NW,323,0.0,1.0,76,0.00,,,0.00,weatherlink.com 1.10,2013-01-15 05:55:00,
2013-01-15 01:10:00,32.2,25.0,30.25,NNW,332,0.0,0.0,76,0.00,,,0.00,weatherlink.com 1.10,2013-01-15 06:10:00,
2013-01-15 01:25:00,31.7,26.0,30.26,NNW,332,0.0,0.0,79,0.00,,,0.00,weatherlink.com 1.10,2013-01-15 06:25:00,
2013-01-15 01:40:00,30.9,25.0,30.26,NNW,332,0.0,0.0,80,0.00,,,0.00,weatherlink.com 1.10,2013-01-15 06:40:00,
2013-01-15 01:55:00,29.7,26.0,30.25,NNW,332,0.0,0.0,85,0.00,,,0.00,weatherlink.com 1.10,2013-01-15 06:55:00,
2013-01-15 02:10:00,28.9,26.0,30.26,NNW,332,0.0,0.0,87,0.00,,,0.00,weatherlink.com 1.10,2013-01-15 07:10:00,
2013-01-15 02:25:00,28.6,26.0,30.25,NNW,332,0.0,1.0,88,0.00,,,0.00,weatherlink.com 1.10,2013-01-15 07:25:00,
2013-01-15 02:40:00,28.2,25.0,30.25,NNW,332,0.0,0.0,89,0.00,,,0.00,weatherlink.com 1.10,2013-01-15 07:40:00,
2013-01-15 02:55:00,27.7,25.0,30.25,NNW,332,0.0,1.0,89,0.00,,,0.00,weatherlink.com 1.10,2013-01-15 07:55:00,
2013-01-15 03:10:00,27.7,26.0,30.25,WNW,291,1.0,1.0,91,0.00,,,0.00,weatherlink.com 1.10,2013-01-15 08:10:00,
2013-01-15 03:25:00,28.1,25.0,30.25,WNW,284,0.0,1.0,88,0.00,,,0.00,weatherlink.com 1.10,2013-01-15 08:25:00,
2013-01-15 03:40:00,28.3,26.0,30.26,WNW,284,0.0,1.0,89,0.00,,,0.00,weatherlink.com 1.10,2013-01-15 08:40:00,
2013-01-15 03:55:00,27.5,25.0,30.26,WNW,283,0.0,0.0,90,0.00,,,0.00,weatherlink.com 1.10,2013-01-15 08:55:00,
2013-01-15 04:10:00,27.1,25.0,30.26,WNW,283,0.0,1.0,91,0.00,,,0.00,weatherlink.com 1.10,2013-01-15 09:10:00,
2013-01-15 04:26:00,26.7,25.0,30.26,WNW,284,0.0,0.0,92,0.00,,,0.00,weatherlink.com 1.10,2013-01-15 09:26:00,
2013-01-15 04:41:00,26.6,25.0,30.27,WNW,283,0.0,1.0,92,0.00,,,0.00,weatherlink.com 1.10,2013-01-15 09:41:00,
2013-01-15 04:56:00,26.4,25.0,30.26,WNW,289,0.0,1.0,93,0.00,,,0.00,weatherlink.com 1.10,2013-01-15 09:56:00,
2013-01-15 05:11:00,26.2,24.0,30.27,WNW,289,0.0,0.0,92,0.00,,,0.00,weatherlink.com 1.10,2013-01-15 10:11:00,
2013-01-15 05:26:00,25.7,24.0,30.26,WNW,289,0.0,0.0,94,0.00,,,0.00,weatherlink.com 1.10,2013-01-15 10:26:00,
2013-01-15 05:41:00,25.3,24.0,30.27,WNW,290,0.0,0.0,95,0.00,,,0.00,weatherlink.com 1.10,2013-01-15 10:41:00,
2013-01-15 05:56:00,25.4,24.0,30.27,NNE,12,0.0,0.0,95,0.00,,,0.00,weatherlink.com 1.10,2013-01-15 10:56:00,
2013-01-15 06:26:00,25.7,24.0,30.28,NW,322,0.0,1.0,91,0.00,,,0.00,weatherlink.com 1.10,2013-01-15 11:26:00,
2013-01-15 06:41:00,25.7,24.0,30.29,WNW,290,0.0,1.0,92,0.00,,,0.00,weatherlink.com 1.10,2013-01-15 11:41:00,
2013-01-15 06:56:00,25.3,24.0,30.30,WNW,290,0.0,1.0,93,0.00,,,0.00,weatherlink.com 1.10,2013-01-15 11:56:00,
2013-01-15 07:11:00,25.0,24.0,30.30,WNW,293,2.0,2.0,94,0.00,,,0.00,weatherlink.com 1.10,2013-01-15 12:11:00,
2013-01-15 07:26:00,25.7,24.0,30.30,ENE,61,0.0,4.0,92,0.00,,,0.00,weatherlink.com 1.10,2013-01-15 12:26:00,
2013-01-15 07:41:00,26.1,24.0,30.31,NE,41,1.0,1.0,91,0.00,,,0.00,weatherlink.com 1.10,2013-01-15 12:41:00,
2013-01-15 07:56:00,26.3,24.0,30.32,WNW,293,1.0,4.0,90,0.00,,,0.00,weatherlink.com 1.10,2013-01-15 12:56:00,
2013-01-15 08:11:00,26.2,23.0,30.32,NW,309,0.0,1.0,89,0.00,,,0.00,weatherlink.com 1.10,2013-01-15 13:11:00,
2013-01-15 08:26:00,25.6,24.0,30.32,NW,309,0.0,1.0,93,0.00,,,0.00,weatherlink.com 1.10,2013-01-15 13:26:00,
2013-01-15 08:41:00,26.2,25.0,30.33,NW,309,0.0,0.0,93,0.00,,,0.00,weatherlink.com 1.10,2013-01-15 13:41:00,
2013-01-15 08:56:00,27.5,25.0,30.33,NW,309,0.0,0.0,91,0.00,,,0.00,weatherlink.com 1.10,2013-01-15 13:56:00,
2013-01-15 09:11:00,28.4,26.0,30.34,ESE,110,0.0,0.0,91,0.00,,,0.00,weatherlink.com 1.10,2013-01-15 14:11:00,
2013-01-15 09:26:00,29.0,26.0,30.35,South,188,0.0,0.0,88,0.00,,,0.00,weatherlink.com 1.10,2013-01-15 14:26:00,
2013-01-15 09:41:00,29.3,26.0,30.35,SW,229,0.0,1.0,86,0.00,,,0.00,weatherlink.com 1.10,2013-01-15 14:41:00,
2013-01-15 09:56:00,29.6,25.0,30.35,SW,229,0.0,0.0,84,0.00,,,0.00,weatherlink.com 1.10,2013-01-15 14:56:00,
2013-01-15 10:11:00,30.3,26.0,30.35,ESE,108,0.0,0.0,83,0.00,,,0.00,weatherlink.com 1.10,2013-01-15 15:11:00,
2013-01-15 10:26:00,30.8,25.0,30.35,ENE,63,2.0,3.0,80,0.00,,,0.00,weatherlink.com 1.10,2013-01-15 15:26:00,
2013-01-15 10:41:00,31.2,25.0,30.35,NE,53,2.0,2.0,79,0.00,,,0.00,weatherlink.com 1.10,2013-01-15 15:41:00,
2013-01-15 10:56:00,31.7,25.0,30.34,ESE,117,2.0,3.0,77,0.00,,,0.00,weatherlink.com 1.10,2013-01-15 15:56:00,
2013-01-15 11:11:00,31.8,25.0,30.33,SW,232,1.0,4.0,77,0.00,,,0.00,weatherlink.com 1.10,2013-01-15 16:11:00,
2013-01-15 11:26:00,32.5,26.0,30.32,ENE,77,1.0,2.0,76,0.00,,,0.00,weatherlink.com 1.10,2013-01-15 16:26:00,
2013-01-15 11:41:00,32.4,26.0,30.31,NW,319,0.0,2.0,76,0.00,,,0.00,weatherlink.com 1.10,2013-01-15 16:41:00,
2013-01-15 11:56:00,32.6,26.0,30.30,ESE,110,2.0,3.0,75,0.00,,,0.00,weatherlink.com 1.10,2013-01-15 16:56:00,
2013-01-15 12:11:00,32.6,25.0,30.29,ESE,104,3.0,5.0,74,0.00,,,0.00,weatherlink.com 1.10,2013-01-15 17:11:00,
2013-01-15 12:26:00,32.6,26.0,30.28,East,84,1.0,4.0,75,0.00,,,0.00,weatherlink.com 1.10,2013-01-15 17:26:00,
2013-01-15 12:41:00,32.8,26.0,30.27,ESE,105,3.0,6.0,75,0.00,,,0.00,weatherlink.com 1.10,2013-01-15 17:41:00,
2013-01-15 12:56:00,33.1,26.0,30.25,ESE,110,4.0,4.0,74,0.00,,,0.00,weatherlink.com 1.10,2013-01-15 17:56:00,
2013-01-15 13:11:00,33.3,25.0,30.25,SE,124,1.0,5.0,72,0.00,,,0.00,weatherlink.com 1.10,2013-01-15 18:11:00,
2013-01-15 13:26:00,33.7,25.0,30.25,NE,47,0.0,3.0,71,0.00,,,0.00,weatherlink.com 1.10,2013-01-15 18:26:00,
2013-01-15 13:42:00,33.8,26.0,30.24,West,266,0.0,2.0,72,0.00,,,0.00,weatherlink.com 1.10,2013-01-15 18:42:00,
2013-01-15 13:56:00,33.9,25.0,30.25,NNE,33,0.0,2.0,71,0.00,,,0.00,weatherlink.com 1.10,2013-01-15 18:56:00,
2013-01-15 14:11:00,34.0,26.0,30.25,NE,36,0.0,2.0,72,0.00,,,0.00,weatherlink.com 1.10,2013-01-15 19:11:00,
2013-01-15 14:26:00,33.9,25.0,30.25,NE,46,1.0,3.0,71,0.00,,,0.00,weatherlink.com 1.10,2013-01-15 19:26:00,
2013-01-15 14:41:00,34.1,26.0,30.25,ESE,110,2.0,2.0,71,0.00,,,0.00,weatherlink.com 1.10,2013-01-15 19:41:00,
2013-01-15 14:56:00,34.4,26.0,30.25,East,92,1.0,2.0,72,0.00,,,0.00,weatherlink.com 1.10,2013-01-15 19:56:00,
2013-01-15 15:11:00,34.2,26.0,30.25,ESE,111,2.0,3.0,71,0.00,,,0.00,weatherlink.com 1.10,2013-01-15 20:11:00,
2013-01-15 15:26:00,34.1,26.0,30.24,East,84,1.0,2.0,72,0.00,,,0.00,weatherlink.com 1.10,2013-01-15 20:26:00,
2013-01-15 15:41:00,33.9,26.0,30.25,East,98,0.0,4.0,72,0.00,,,0.00,weatherlink.com 1.10,2013-01-15 20:41:00,
2013-01-15 15:56:00,34.1,26.0,30.25,East,82,1.0,2.0,72,0.00,,,0.00,weatherlink.com 1.10,2013-01-15 20:56:00,
2013-01-15 16:11:00,34.0,26.0,30.25,ESE,122,0.0,2.0,73,0.00,,,0.00,weatherlink.com 1.10,2013-01-15 21:11:00,
2013-01-15 16:26:00,33.7,26.0,30.24,ESE,110,1.0,2.0,73,0.00,,,0.00,weatherlink.com 1.10,2013-01-15 21:26:00,
2013-01-15 16:41:00,33.6,26.0,30.24,ESE,120,0.0,2.0,74,0.00,,,0.00,weatherlink.com 1.10,2013-01-15 21:41:00,
2013-01-15 16:56:00,33.4,26.0,30.25,East,99,0.0,1.0,74,0.00,,,0.00,weatherlink.com 1.10,2013-01-15 21:56:00,
2013-01-15 17:11:00,33.3,26.0,30.25,East,95,0.0,1.0,75,0.00,,,0.00,weatherlink.com 1.10,2013-01-15 22:11:00,
2013-01-15 17:26:00,33.2,26.0,30.26,East,95,0.0,1.0,75,0.00,,,0.00,weatherlink.com 1.10,2013-01-15 22:26:00,
2013-01-15 17:41:00,33.1,26.0,30.25,ESE,108,1.0,2.0,76,0.00,,,0.00,weatherlink.com 1.10,2013-01-15 22:41:00,
2013-01-15 17:56:00,33.1,26.0,30.24,East,80,1.0,1.0,76,0.00,,,0.00,weatherlink.com 1.10,2013-01-15 22:56:00,
2013-01-15 18:11:00,33.0,26.0,30.23,ENE,66,1.0,2.0,76,0.00,,,0.00,weatherlink.com 1.10,2013-01-15 23:11:00,
2013-01-15 18:26:00,32.9,26.0,30.23,SE,130,0.0,2.0,76,0.00,,,0.00,weatherlink.com 1.10,2013-01-15 23:26:00,
2013-01-15 18:41:00,32.6,26.0,30.23,ENE,65,0.0,3.0,77,0.00,,,0.00,weatherlink.com 1.10,2013-01-15 23:41:00,
2013-01-15 18:56:00,32.5,26.0,30.24,NE,46,1.0,2.0,77,0.00,,,0.00,weatherlink.com 1.10,2013-01-15 23:56:00,
2013-01-15 19:11:00,32.6,26.0,30.24,ESE,104,0.0,1.0,77,0.00,,,0.00,weatherlink.com 1.10,2013-01-16 00:11:00,
2013-01-15 19:26:00,32.5,26.0,30.24,ESE,105,0.0,1.0,78,0.00,,,0.00,weatherlink.com 1.10,2013-01-16 00:26:00,
2013-01-15 19:41:00,32.5,26.0,30.24,East,92,1.0,1.0,77,0.00,,,0.00,weatherlink.com 1.10,2013-01-16 00:41:00,
2013-01-15 19:56:00,32.4,26.0,30.22,ESE,105,0.0,1.0,77,0.00,,,0.00,weatherlink.com 1.10,2013-01-16 00:56:00,
2013-01-15 20:11:00,32.3,26.0,30.21,ESE,104,0.0,1.0,78,0.00,,,0.00,weatherlink.com 1.10,2013-01-16 01:11:00,
2013-01-15 20:26:00,32.3,26.0,30.22,ESE,104,0.0,1.0,78,0.00,,,0.00,weatherlink.com 1.10,2013-01-16 01:26:00,
2013-01-15 20:41:00,32.3,26.0,30.22,ESE,112,0.0,1.0,78,0.00,,,0.00,weatherlink.com 1.10,2013-01-16 01:41:00,
2013-01-15 20:56:00,32.3,26.0,30.20,ESE,111,1.0,1.0,79,0.00,,,0.00,weatherlink.com 1.10,2013-01-16 01:56:00,
2013-01-15 21:11:00,32.2,27.0,30.19,ESE,111,0.0,1.0,80,0.00,,,0.00,weatherlink.com 1.10,2013-01-16 02:11:00,
2013-01-15 21:26:00,32.2,26.0,30.17,ESE,115,2.0,4.0,77,0.00,,,0.00,weatherlink.com 1.10,2013-01-16 02:26:00,
2013-01-15 21:41:00,31.7,27.0,30.17,SE,131,2.0,4.0,82,0.00,,,0.00,weatherlink.com 1.10,2013-01-16 02:41:00,
2013-01-15 21:56:00,31.0,27.0,30.17,SE,139,0.0,5.0,86,0.00,,,0.00,weatherlink.com 1.10,2013-01-16 02:56:00,
2013-01-15 22:11:00,30.5,28.0,30.17,East,96,1.0,2.0,89,0.00,,,0.00,weatherlink.com 1.10,2013-01-16 03:11:00,
2013-01-15 22:26:00,29.9,28.0,30.17,SE,131,1.0,2.0,92,0.00,,,0.00,weatherlink.com 1.10,2013-01-16 03:26:00,
2013-01-15 22:41:00,29.6,28.0,30.16,NNE,23,1.0,1.0,93,0.00,,,0.00,weatherlink.com 1.10,2013-01-16 03:41:00,
2013-01-15 22:56:00,29.6,28.0,30.16,NE,41,0.0,1.0,94,0.00,,,0.00,weatherlink.com 1.10,2013-01-16 03:56:00,
2013-01-15 23:11:00,29.4,28.0,30.16,NE,53,0.0,1.0,95,0.00,,,0.00,weatherlink.com 1.10,2013-01-16 04:11:00,
2013-01-15 23:26:00,29.4,28.0,30.15,ENE,73,0.0,1.0,95,0.00,,,0.00,weatherlink.com 1.10,2013-01-16 04:26:00,
2013-01-15 23:41:00,29.4,28.0,30.14,ENE,73,1.0,1.0,95,0.00,,,0.00,weatherlink.com 1.10,2013-01-16 04:41:00,
2013-01-15 23:56:00,29.4,28.0,30.13,ENE,60,0.0,0.0,96,0.00,,,0.00,weatherlink.com 1.10,2013-01-16 04:56:00,